"startDT [UTC]","vpos","CH4 [ppm]","stdev(CH4) [ppm]","CO2 [ppm]","stdev(CO2) [ppm]","H2O [ppm]","stdev(H2O)","p_LGR [torr]","T_LGR [C]","mt1_LGR [us]","mt2_LGR [us]","T_ECpre [C]","T_EC1 [C]","T_EC2 [C]","p_inlet [hPa]","p_in [hPa]","p_out [hPa]","T_inlet [C]","RH_inlet [%]","dwpt_inlet [C]","T_vent [C]","RH_vent [%]","dwpt_vent [C]","flow_vent [l min-1]","flow_inlet [l min-1]","dwpt_sample [C]","T_room [C]"
2012-09-01 00:00:00,0.0,1.9637,0.0011,387.69,0.26,302.0,25.3,138.06,29.93,24.65,36.52,0.80,-26.72,-13.60,-46,40,-936,23.6,22.7,1.0,23.7,2.1,-27.7,5.73,2.57,-26.5,29.9
2012-09-01 00:01:00,0.0,1.9635,0.0008,387.64,0.26,313.0,32.8,138.06,29.94,24.65,36.53,0.85,-26.69,-12.07,-46,40,-935,23.6,22.3,0.8,23.7,2.2,-27.6,5.73,2.55,-26.5,29.9
2012-09-01 00:02:00,0.0,1.9640,0.0008,387.69,0.32,314.1,23.6,138.06,29.95,24.65,36.52,0.90,-26.66,-10.62,-46,40,-936,23.6,22.3,0.8,23.7,2.2,-27.6,5.73,2.54,-26.5,29.9
2012-09-01 00:03:00,0.0,1.9640,0.0009,387.64,0.27,309.3,32.0,138.06,29.95,24.65,36.52,0.92,-26.63,-9.26,-46,40,-935,23.6,22.4,0.9,23.7,2.1,-27.7,5.73,2.56,-26.5,29.9
2012-09-01 00:04:00,0.0,1.9646,0.0009,387.50,0.29,302.1,27.6,138.06,29.95,24.65,36.53,0.94,-26.60,-7.96,-46,40,-936,23.6,22.4,0.9,23.7,2.1,-27.8,5.73,2.58,-26.6,29.9
2012-09-01 00:05:00,0.0,1.9653,0.0010,387.53,0.33,309.6,31.8,138.06,29.96,24.65,36.52,0.90,-26.57,-6.73,-46,40,-935,23.6,22.6,1.0,23.7,2.1,-27.8,5.73,2.57,-26.6,30.0
2012-09-01 00:06:00,0.0,1.9647,0.0010,387.56,0.29,304.6,29.7,138.06,29.96,24.65,36.52,0.83,-26.54,-5.56,-46,40,-936,23.6,22.8,1.1,23.7,2.1,-27.8,5.73,2.55,-26.6,29.9
2012-09-01 00:07:00,0.0,1.9645,0.0011,387.54,0.25,304.2,27.9,138.06,29.97,24.65,36.52,0.84,-26.51,-4.45,-46,40,-935,23.6,22.8,1.1,23.7,2.1,-28.0,5.73,2.55,-26.7,30.0
2012-09-01 00:08:00,0.0,1.9630,0.0009,387.53,0.31,296.7,32.7,138.07,29.97,24.65,36.52,0.88,-26.48,-3.40,-46,40,-936,23.6,22.7,1.0,23.7,2.1,-28.0,5.73,2.57,-26.7,30.0
2012-09-01 00:09:00,0.0,1.9633,0.0009,387.35,0.28,292.5,32.7,138.07,29.97,24.65,36.53,0.91,-26.45,-2.39,-46,40,-935,23.6,22.6,1.0,23.7,2.1,-28.1,5.73,2.57,-26.7,29.9
2012-09-01 00:10:00,0.0,1.9633,0.0007,387.44,0.34,298.4,36.2,138.07,29.98,24.65,36.52,0.93,-26.43,-1.44,-46,40,-936,23.6,22.8,1.1,23.7,2.1,-28.2,5.73,2.56,-26.8,29.9
2012-09-01 00:11:00,0.0,1.9629,0.0009,387.50,0.27,285.5,24.4,138.07,29.98,24.65,36.53,0.94,-26.40,-0.53,-46,40,-935,23.5,22.8,1.1,23.7,2.0,-28.2,5.73,2.55,-26.8,29.9
2012-09-01 00:12:00,0.0,1.9633,0.0008,387.55,0.31,285.4,30.5,138.06,29.99,24.65,36.52,0.91,-26.38,0.32,-45,40,-936,23.5,22.6,1.0,23.7,2.0,-28.3,5.73,2.55,-26.8,30.0
2012-09-01 00:13:00,0.0,1.9632,0.0009,387.60,0.29,286.0,28.9,138.07,29.99,24.65,36.52,0.85,-26.35,1.13,-46,40,-936,23.5,22.7,1.0,23.7,2.0,-28.3,5.73,2.58,-26.9,29.9
2012-09-01 00:14:00,0.0,1.9627,0.0009,387.56,0.30,280.2,34.0,138.07,29.99,24.65,36.52,0.85,-26.33,1.89,-46,40,-935,23.5,22.6,0.9,23.7,2.0,-28.3,5.73,2.58,-26.9,29.9
2012-09-01 00:15:00,0.0,1.9628,0.0007,387.44,0.32,285.6,28.8,138.07,29.99,24.65,36.53,0.89,-26.31,2.57,-46,40,-936,23.5,22.5,0.9,23.7,2.0,-28.4,5.73,2.56,-26.9,29.9
2012-09-01 00:16:00,0.0,1.9626,0.0007,387.61,0.26,286.7,27.5,138.07,30.00,24.65,36.52,0.90,-26.29,3.04,-46,40,-935,23.5,22.4,0.8,23.7,2.0,-28.4,5.73,2.55,-26.9,29.9
2012-09-01 00:17:00,0.0,1.9629,0.0010,387.51,0.30,275.1,33.1,138.07,30.00,24.65,36.52,0.92,-26.27,3.26,-46,40,-936,23.6,22.2,0.7,23.7,2.0,-28.5,5.73,2.56,-27.0,29.9
2012-09-01 00:18:00,0.0,1.9631,0.0007,387.50,0.25,277.9,31.1,138.07,30.00,24.65,36.52,0.93,-26.26,3.45,-46,40,-935,23.6,22.4,0.9,23.7,2.0,-28.5,5.73,2.58,-27.0,29.9
2012-09-01 00:19:00,0.0,1.9629,0.0010,387.60,0.28,279.4,29.6,138.07,30.00,24.65,36.52,0.94,-26.24,3.82,-46,40,-936,23.6,22.4,0.9,23.7,2.0,-28.5,5.73,2.57,-27.0,29.9
2012-09-01 00:20:00,0.0,1.9635,0.0010,387.64,0.33,269.3,31.0,138.07,30.01,24.65,36.52,0.94,-26.22,4.36,-46,40,-936,23.6,22.4,0.9,23.7,2.0,-28.5,5.73,2.55,-27.0,29.9
2012-09-01 00:21:00,0.0,1.9635,0.0008,387.70,0.30,278.1,24.0,138.07,30.01,24.65,36.52,0.90,-26.20,4.97,-46,40,-935,23.6,22.7,1.0,23.7,2.0,-28.6,5.73,2.55,-27.0,29.9
2012-09-01 00:22:00,0.0,1.9631,0.0009,387.56,0.28,280.9,29.8,138.07,30.01,24.65,36.52,0.89,-26.19,5.52,-46,40,-936,23.5,22.3,0.7,23.7,2.0,-28.6,5.73,2.57,-27.0,29.9
2012-09-01 00:23:00,0.0,1.9631,0.0009,387.71,0.29,277.0,30.1,138.07,30.02,24.65,36.51,0.85,-26.18,6.04,-45,40,-935,23.5,21.9,0.5,23.7,2.0,-28.6,5.73,2.58,-27.0,29.9
2012-09-01 00:24:00,0.0,1.9635,0.0010,387.81,0.26,273.7,30.6,138.07,30.02,24.65,36.53,0.89,-26.16,6.54,-46,40,-936,23.5,22.1,0.6,23.7,2.0,-28.6,5.73,2.56,-27.1,29.9
2012-09-01 00:25:00,0.0,1.9636,0.0008,387.90,0.26,273.0,34.2,138.07,30.03,24.65,36.52,0.89,-26.15,7.01,-46,40,-936,23.4,22.3,0.7,23.6,2.0,-28.6,5.73,2.55,-27.1,29.9
2012-09-01 00:26:00,0.0,1.9631,0.0008,387.86,0.31,269.4,32.1,138.07,30.03,24.65,36.52,0.93,-26.14,7.47,-45,40,-935,23.4,22.1,0.5,23.6,2.0,-28.6,5.73,2.56,-27.1,29.9
2012-09-01 00:27:00,0.0,1.9633,0.0009,387.71,0.28,273.6,28.9,138.07,30.03,24.65,36.52,0.93,-26.13,7.91,-45,40,-936,23.3,22.1,0.5,23.5,2.0,-28.7,5.73,2.59,-27.1,29.9
2012-09-01 00:28:00,0.0,1.9637,0.0010,387.72,0.27,265.9,29.4,138.07,30.03,24.65,36.52,0.93,-26.12,8.33,-45,40,-935,23.3,22.6,0.7,23.5,2.0,-28.7,5.73,2.57,-27.1,29.9
2012-09-01 00:29:00,0.0,1.9634,0.0011,387.96,0.26,270.5,30.4,138.07,30.04,24.65,36.52,0.94,-26.11,8.74,-45,40,-936,23.3,22.7,0.8,23.5,2.0,-28.7,5.73,2.55,-27.1,29.9
2012-09-01 00:30:00,0.0,1.9628,0.0009,387.89,0.29,265.1,30.4,138.07,30.04,24.65,36.52,0.94,-26.09,9.14,-45,40,-936,23.2,22.5,0.6,23.5,2.0,-28.7,5.73,2.55,-27.1,29.9
2012-09-01 00:31:00,0.0,1.9634,0.0009,387.82,0.34,265.6,31.0,138.07,30.04,24.65,36.52,0.93,-26.08,9.52,-45,40,-935,23.2,22.6,0.6,23.5,2.0,-28.7,5.73,2.57,-27.1,29.9
2012-09-01 00:32:00,0.0,1.9633,0.0009,387.99,0.32,266.5,26.7,138.07,30.04,24.65,36.52,0.87,-26.07,9.89,-45,40,-936,23.2,22.7,0.8,23.5,2.0,-28.7,5.73,2.59,-27.1,29.9
2012-09-01 00:33:00,0.0,1.9629,0.0009,387.79,0.29,265.9,30.9,138.07,30.05,24.65,36.52,0.86,-26.07,10.24,-45,40,-935,23.1,22.8,0.7,23.5,2.0,-28.7,5.73,2.57,-27.1,29.9
2012-09-01 00:34:00,0.0,1.9634,0.0007,387.60,0.32,263.0,32.9,138.07,30.05,24.65,36.52,0.88,-26.06,10.59,-45,40,-936,23.1,23.1,0.9,23.4,2.0,-28.7,5.73,2.55,-27.1,29.9
2012-09-01 00:35:00,0.0,1.9630,0.0009,387.56,0.26,265.8,31.5,138.07,30.05,24.65,36.52,0.89,-26.05,10.93,-45,40,-935,23.1,23.1,0.9,23.4,2.0,-28.8,5.73,2.56,-27.1,29.9
2012-09-01 00:36:00,0.0,1.9630,0.0009,387.59,0.27,270.6,31.1,138.07,30.05,24.65,36.52,0.90,-26.04,11.25,-45,40,-935,23.1,23.1,0.9,23.4,2.0,-28.8,5.73,2.58,-27.1,29.9
2012-09-01 00:37:00,0.0,1.9628,0.0008,387.98,0.31,263.1,31.6,138.07,30.06,24.65,36.53,0.91,-26.03,11.57,-45,40,-936,23.1,23.5,1.1,23.4,2.0,-28.8,5.73,2.58,-27.1,29.8
2012-09-01 00:38:00,0.0,1.9630,0.0009,388.02,0.29,265.7,34.2,138.06,30.06,24.65,36.52,0.92,-26.02,11.88,-45,40,-935,23.1,23.6,1.1,23.3,2.0,-28.8,5.73,2.55,-27.2,29.9
2012-09-01 00:39:00,0.0,1.9623,0.0008,387.82,0.29,272.4,30.8,138.07,30.06,24.65,36.52,0.93,-26.01,12.17,-45,40,-935,23.1,23.7,1.2,23.3,2.0,-28.8,5.73,2.55,-27.1,29.8
2012-09-01 00:40:00,0.0,1.9617,0.0008,387.73,0.26,254.9,33.5,138.07,30.06,24.65,36.52,0.94,-26.00,12.45,-45,40,-935,23.1,23.3,1.0,23.4,2.0,-28.7,5.73,2.59,-27.1,29.8
2012-09-01 00:41:00,0.0,1.9622,0.0008,387.65,0.29,259.8,31.3,138.07,30.06,24.65,36.52,0.94,-26.00,12.73,-45,40,-936,23.1,23.2,0.9,23.4,2.0,-28.8,5.73,2.59,-27.1,29.8
2012-09-01 00:42:00,0.0,1.9610,0.0008,387.57,0.28,267.3,33.6,138.07,30.07,24.65,36.52,0.93,-25.99,12.99,-45,40,-935,23.0,23.1,0.8,23.3,2.0,-28.7,5.73,2.56,-27.1,29.8
2012-09-01 00:43:00,0.0,1.9610,0.0009,387.72,0.28,272.0,29.6,138.07,30.07,24.65,36.52,0.90,-25.98,13.24,-45,40,-935,23.0,23.0,0.7,23.3,2.0,-28.6,5.73,2.55,-27.1,29.8
2012-09-01 00:44:00,0.0,1.9617,0.0008,387.93,0.30,270.8,33.1,138.07,30.08,24.65,36.52,0.89,-25.98,13.48,-45,40,-935,23.0,23.0,0.8,23.3,2.0,-28.6,5.73,2.57,-27.1,29.8
2012-09-01 00:45:00,0.0,1.9615,0.0007,388.13,0.32,268.5,29.9,138.07,30.08,24.65,36.52,0.87,-25.98,13.71,-45,40,-935,23.0,23.1,0.8,23.3,2.0,-28.7,5.73,2.59,-27.1,29.8
2012-09-01 00:46:00,0.0,1.9617,0.0008,387.73,0.27,264.9,31.7,138.07,30.08,24.65,36.53,0.90,-25.97,13.93,-45,40,-935,23.0,23.1,0.7,23.3,2.0,-28.7,5.73,2.57,-27.1,29.8
2012-09-01 00:47:00,0.0,1.9611,0.0008,387.48,0.29,263.3,27.4,138.07,30.08,24.65,36.52,0.90,-25.97,14.14,-45,40,-935,22.9,23.2,0.8,23.3,2.0,-28.7,5.73,2.55,-27.1,29.8
2012-09-01 00:48:00,0.0,1.9608,0.0009,387.39,0.26,268.7,33.8,138.07,30.09,24.65,36.52,0.91,-25.97,14.35,-45,40,-935,22.9,23.3,0.9,23.3,2.0,-28.7,5.73,2.56,-27.1,29.8
2012-09-01 00:49:00,0.0,1.9610,0.0009,387.41,0.26,270.8,33.9,138.07,30.09,24.65,36.52,0.90,-25.96,14.54,-45,40,-935,22.9,23.1,0.8,23.3,2.0,-28.7,5.73,2.59,-27.1,29.8
2012-09-01 00:50:00,0.0,1.9609,0.0008,387.63,0.31,271.7,33.4,138.07,30.09,24.65,36.52,0.91,-25.95,14.72,-45,40,-935,22.9,23.1,0.7,23.2,2.0,-28.7,5.73,2.58,-27.1,29.8
2012-09-01 00:51:00,0.0,1.9615,0.0007,387.68,0.35,266.4,27.4,138.07,30.09,24.65,36.52,0.92,-25.95,14.90,-45,40,-935,22.9,23.3,0.9,23.2,2.0,-28.7,5.73,2.56,-27.1,29.8
2012-09-01 00:52:00,0.0,1.9615,0.0009,387.68,0.28,264.7,35.7,138.07,30.09,24.65,36.52,0.93,-25.95,15.07,-45,40,-935,22.9,23.6,1.0,23.2,2.0,-28.7,5.73,2.55,-27.1,29.8
2012-09-01 00:53:00,0.0,1.9621,0.0009,388.47,0.39,267.5,32.9,138.07,30.10,24.65,36.52,0.94,-25.94,15.23,-45,40,-935,22.9,23.5,1.0,23.2,2.0,-28.7,5.73,2.58,-27.1,29.7
2012-09-01 00:54:00,0.0,1.9622,0.0009,387.94,0.40,267.5,32.4,138.07,30.11,24.65,36.52,0.94,-25.93,15.39,-45,40,-935,22.9,23.8,1.1,23.2,2.0,-28.6,5.73,2.59,-27.1,29.7
2012-09-01 00:55:00,0.0,1.9621,0.0008,387.47,0.31,269.1,30.7,138.07,30.11,24.65,36.52,0.94,-25.94,15.54,-45,40,-935,22.9,24.1,1.3,23.2,2.0,-28.6,5.73,2.57,-27.1,29.7
2012-09-01 00:56:00,0.0,1.9617,0.0011,387.46,0.33,269.9,34.6,138.07,30.11,24.65,36.52,0.93,-25.93,15.68,-45,40,-935,22.9,24.1,1.3,23.2,2.0,-28.6,5.73,2.55,-27.1,29.7
2012-09-01 00:57:00,0.0,1.9616,0.0012,387.28,0.31,268.5,25.3,138.07,30.11,24.65,36.53,0.91,-25.93,15.82,-45,41,-935,22.8,24.1,1.3,23.2,2.0,-28.6,5.73,2.56,-27.1,29.8
2012-09-01 00:58:00,0.0,1.9613,0.0008,387.47,0.24,268.6,27.2,138.07,30.12,24.65,36.52,0.89,-25.92,15.95,-45,40,-935,22.8,24.2,1.3,23.2,2.0,-28.5,5.73,2.59,-27.1,29.8
2012-09-01 00:59:00,0.0,1.9616,0.0008,387.48,0.32,269.3,28.1,138.07,30.12,24.65,36.52,0.88,-25.92,16.08,-45,40,-935,22.9,24.2,1.3,23.2,2.0,-28.7,5.73,2.58,-27.1,29.7
2012-09-01 01:00:00,0.0,1.9614,0.0009,387.54,0.28,265.5,33.4,138.07,30.12,24.65,36.52,0.90,-25.92,16.19,-45,41,-935,22.9,24.3,1.4,23.2,2.0,-28.6,5.73,2.56,-27.1,29.7
2012-09-01 01:01:00,0.0,1.9612,0.0010,387.49,0.28,266.6,24.4,138.07,30.13,24.65,36.52,0.90,-25.91,16.31,-45,40,-935,22.9,24.0,1.3,23.2,2.0,-28.6,5.73,2.56,-27.1,29.7
2012-09-01 01:02:00,0.0,1.9604,0.0007,387.38,0.25,265.6,25.6,138.07,30.13,24.65,36.53,0.91,-25.91,16.42,-45,40,-935,22.9,23.6,1.0,23.2,2.0,-28.6,5.73,2.59,-27.1,29.7
2012-09-01 01:03:00,0.0,1.9604,0.0009,387.66,0.32,265.2,34.5,138.07,30.13,24.65,36.52,0.90,-25.91,16.52,-45,41,-935,22.9,23.4,0.9,23.2,2.0,-28.6,5.73,2.59,-27.1,29.7
2012-09-01 01:04:00,0.0,1.9611,0.0008,387.41,0.27,261.3,29.7,138.07,30.13,24.65,36.52,0.92,-25.90,16.62,-45,40,-935,22.8,23.3,0.8,23.1,2.0,-28.6,5.73,2.56,-27.1,29.7
2012-09-01 01:05:00,0.0,1.9612,0.0008,387.48,0.34,268.8,22.9,138.07,30.14,24.65,36.53,0.92,-25.91,16.72,-45,40,-935,22.8,23.4,0.8,23.1,2.0,-28.7,5.73,2.55,-27.2,29.7
2012-09-01 01:06:00,0.0,1.9616,0.0009,387.70,0.28,264.8,31.9,138.07,30.14,24.65,36.52,0.92,-25.91,16.80,-45,41,-934,22.8,23.2,0.8,23.1,2.0,-28.6,5.73,2.57,-27.2,29.7
2012-09-01 01:07:00,0.0,1.9616,0.0008,387.94,0.32,268.2,30.5,138.07,30.14,24.65,36.52,0.93,-25.90,16.89,-45,41,-935,22.8,23.4,0.8,23.1,2.0,-28.7,5.73,2.59,-27.2,29.7
2012-09-01 01:08:00,0.0,1.9614,0.0009,388.17,0.31,265.1,30.4,138.07,30.14,24.65,36.52,0.93,-25.90,16.98,-45,41,-935,22.8,23.4,0.8,23.1,2.0,-28.6,5.73,2.57,-27.2,29.7
2012-09-01 01:09:00,0.0,1.9612,0.0010,387.65,0.32,262.8,27.0,138.07,30.15,24.65,36.53,0.93,-25.90,17.06,-45,41,-935,22.9,23.1,0.7,23.1,2.0,-28.6,5.73,2.55,-27.2,29.7
2012-09-01 01:10:00,0.0,1.9609,0.0008,387.54,0.31,264.3,21.8,138.07,30.15,24.65,36.52,0.94,-25.90,17.14,-45,41,-935,22.8,22.9,0.5,23.1,2.0,-28.6,5.73,2.56,-27.2,29.7
2012-09-01 01:11:00,0.0,1.9611,0.0010,387.39,0.34,268.0,31.1,138.07,30.15,24.65,36.53,0.94,-25.90,17.21,-45,41,-935,22.9,23.3,0.8,23.1,2.0,-28.6,5.73,2.59,-27.2,29.7
2012-09-01 01:12:00,0.0,1.9598,0.0010,387.46,0.28,264.3,30.7,138.06,30.15,24.65,36.52,0.93,-25.90,17.28,-45,41,-935,22.9,22.8,0.5,23.1,2.1,-28.5,5.73,2.58,-27.2,29.7
2012-09-01 01:13:00,0.0,1.9602,0.0010,387.33,0.25,257.1,26.9,138.07,30.15,24.65,36.52,0.92,-25.90,17.35,-45,41,-935,22.8,23.2,0.7,23.1,2.0,-28.7,5.73,2.56,-27.2,29.6
2012-09-01 01:14:00,0.0,1.9605,0.0008,387.28,0.28,268.9,26.0,138.07,30.16,24.65,36.53,0.91,-25.90,17.42,-45,41,-935,22.9,23.3,0.8,23.1,2.0,-28.7,5.73,2.55,-27.2,29.7
2012-09-01 01:15:00,0.0,1.9603,0.0010,387.59,0.35,267.3,33.3,138.07,30.16,24.65,36.52,0.89,-25.90,17.48,-45,41,-934,22.9,23.0,0.7,23.2,2.0,-28.6,5.73,2.58,-27.2,29.7
2012-09-01 01:16:00,0.0,1.9609,0.0008,387.42,0.33,258.1,31.4,138.07,30.17,24.65,36.52,0.87,-25.90,17.54,-45,41,-935,22.9,22.9,0.6,23.1,2.0,-28.7,5.73,2.59,-27.2,29.7
2012-09-01 01:17:00,0.0,1.9603,0.0009,387.35,0.32,264.5,31.0,138.07,30.17,24.65,36.53,0.91,-25.90,17.59,-45,41,-935,22.9,22.8,0.6,23.1,2.0,-28.7,5.73,2.57,-27.2,29.7
2012-09-01 01:18:00,0.0,1.9607,0.0008,387.45,0.30,263.9,31.3,138.07,30.17,24.65,36.52,0.90,-25.90,17.65,-45,41,-935,22.9,23.1,0.7,23.1,2.0,-28.6,5.73,2.55,-27.2,29.7
2012-09-01 01:19:00,0.0,1.9615,0.0007,387.18,0.25,264.5,33.4,138.07,30.17,24.65,36.52,0.90,-25.90,17.70,-45,41,-934,22.9,23.7,1.0,23.1,2.0,-28.6,5.73,2.56,-27.2,29.7
2012-09-01 01:20:00,0.0,1.9612,0.0008,387.12,0.30,264.1,28.9,138.07,30.17,24.65,36.52,0.92,-25.89,17.75,-45,41,-935,22.9,24.1,1.3,23.1,2.0,-28.7,5.73,2.59,-27.2,29.7
2012-09-01 01:21:00,0.0,1.9603,0.0009,387.19,0.28,257.9,31.4,138.06,30.18,24.65,36.53,0.92,-25.89,17.80,-45,41,-935,22.9,23.8,1.1,23.1,2.0,-28.7,5.73,2.58,-27.2,29.7
2012-09-01 01:22:00,0.0,1.9593,0.0010,387.35,0.32,262.1,28.9,138.07,30.18,24.65,36.52,0.93,-25.89,17.84,-45,41,-935,22.9,23.0,0.6,23.1,2.0,-28.7,5.73,2.56,-27.2,29.7
2012-09-01 01:23:00,0.0,1.9594,0.0008,387.49,0.31,262.9,32.8,138.07,30.19,24.65,36.53,0.93,-25.89,17.88,-45,41,-935,22.9,22.9,0.5,23.1,2.0,-28.7,5.73,2.55,-27.2,29.7
2012-09-01 01:24:00,0.0,1.9607,0.0010,387.43,0.35,254.5,33.5,138.06,30.19,24.65,36.52,0.93,-25.89,17.93,-45,41,-935,22.9,23.3,0.8,23.1,2.0,-28.8,5.73,2.57,-27.2,29.7
2012-09-01 01:25:00,0.0,1.9603,0.0010,387.22,0.27,268.7,29.2,138.06,30.19,24.65,36.52,0.94,-25.88,17.97,-45,41,-935,22.9,23.4,0.9,23.1,2.0,-28.8,5.73,2.59,-27.2,29.7
2012-09-01 01:26:00,0.0,1.9587,0.0008,387.17,0.35,265.3,27.2,138.06,30.19,24.65,36.53,0.93,-25.89,18.01,-45,41,-935,22.9,22.6,0.4,23.1,2.0,-28.8,5.73,2.58,-27.2,29.7
2012-09-01 01:27:00,0.0,1.9600,0.0009,387.04,0.25,258.0,32.4,138.07,30.20,24.65,36.52,0.94,-25.88,18.04,-45,41,-935,22.9,23.6,1.0,23.1,2.0,-28.8,5.73,2.55,-27.2,29.7
2012-09-01 01:28:00,0.0,1.9601,0.0008,387.22,0.31,258.8,30.3,138.06,30.20,24.65,36.52,0.93,-25.88,18.08,-45,41,-935,22.9,23.3,0.8,23.2,2.0,-28.7,5.73,2.56,-27.2,29.7
2012-09-01 01:29:00,0.0,1.9590,0.0008,387.19,0.28,262.7,34.3,138.06,30.20,24.65,36.52,0.93,-25.88,18.11,-45,41,-935,22.9,23.0,0.7,23.1,2.0,-28.8,5.73,2.58,-27.2,29.8
2012-09-01 01:30:00,0.0,1.9577,0.0015,386.98,0.27,257.4,32.2,138.06,30.21,24.65,36.53,0.91,-25.88,18.14,-45,41,-935,22.9,23.8,1.2,23.1,2.0,-28.9,5.73,2.59,-27.2,29.8
2012-09-01 01:31:00,0.0,1.9537,0.0011,387.26,0.31,254.9,30.6,138.06,30.21,24.65,36.52,0.90,-25.88,18.17,-45,41,-935,22.9,23.1,0.7,23.1,2.0,-28.8,5.73,2.56,-27.2,29.8
2012-09-01 01:32:00,0.0,1.9535,0.0009,387.37,0.29,262.7,33.0,138.06,30.22,24.65,36.52,0.91,-25.88,18.20,-45,41,-935,22.9,22.7,0.5,23.1,2.0,-28.7,5.73,2.55,-27.2,29.8
2012-09-01 01:33:00,0.0,1.9545,0.0009,387.31,0.30,257.4,23.6,138.06,30.22,24.65,36.52,0.91,-25.88,18.23,-45,41,-935,22.9,23.0,0.7,23.2,2.0,-28.7,5.73,2.57,-27.2,29.7
2012-09-01 01:34:00,0.0,1.9550,0.0009,387.12,0.26,254.9,30.4,138.06,30.22,24.65,36.52,0.90,-25.88,18.26,-45,41,-935,22.9,23.9,1.2,23.2,2.0,-28.8,5.73,2.59,-27.2,29.7
2012-09-01 01:35:00,0.0,1.9552,0.0008,387.31,0.33,262.7,28.7,138.06,30.22,24.65,36.53,0.91,-25.87,18.28,-45,41,-935,22.9,23.7,1.1,23.2,2.0,-28.8,5.73,2.58,-27.2,29.8
2012-09-01 01:36:00,0.0,1.9552,0.0008,387.31,0.32,258.1,27.3,138.06,30.23,24.65,36.52,0.89,-25.88,18.31,-45,41,-935,22.9,23.5,1.0,23.1,2.0,-28.8,5.73,2.55,-27.2,29.8
2012-09-01 01:37:00,0.0,1.9550,0.0008,387.35,0.28,255.2,38.0,138.06,30.23,24.65,36.52,0.92,-25.87,18.34,-45,41,-935,22.9,23.1,0.8,23.1,2.0,-28.8,5.73,2.55,-27.2,29.8
2012-09-01 01:38:00,0.0,1.9545,0.0009,387.35,0.31,257.6,29.1,138.06,30.24,24.65,36.52,0.91,-25.87,18.36,-45,41,-935,22.9,23.0,0.7,23.2,2.0,-28.7,5.73,2.58,-27.2,29.8
2012-09-01 01:39:00,0.0,1.9545,0.0008,387.42,0.34,256.1,30.0,138.06,30.24,24.65,36.52,0.91,-25.87,18.38,-45,41,-935,22.9,22.8,0.6,23.2,2.0,-28.7,5.73,2.58,-27.2,29.7
2012-09-01 01:40:00,0.0,1.9548,0.0009,387.52,0.29,257.9,34.8,138.06,30.25,24.65,36.52,0.91,-25.88,18.40,-45,41,-935,22.9,22.9,0.7,23.2,2.0,-28.7,5.73,2.57,-27.2,29.7
2012-09-01 01:41:00,0.0,1.9546,0.0009,387.27,0.34,256.8,29.4,138.06,30.25,24.65,36.53,0.93,-25.87,18.42,-45,41,-935,23.0,23.4,1.0,23.2,2.0,-28.8,5.73,2.55,-27.2,29.8
2012-09-01 01:42:00,0.0,1.9538,0.0009,387.27,0.30,260.0,28.3,138.06,30.26,24.65,36.52,0.93,-25.86,18.44,-45,41,-935,23.0,23.7,1.1,23.2,2.0,-28.8,5.73,2.56,-27.2,29.8
2012-09-01 01:43:00,0.0,1.9529,0.0009,387.37,0.33,263.9,31.6,138.06,30.26,24.65,36.52,0.93,-25.86,18.46,-45,41,-935,23.0,23.4,1.0,23.2,2.0,-28.8,5.73,2.58,-27.2,29.8
2012-09-01 01:44:00,0.0,1.9522,0.0010,387.32,0.29,252.5,26.7,138.06,30.27,24.65,36.53,0.94,-25.86,18.48,-45,41,-935,23.0,23.1,0.8,23.2,2.0,-28.8,5.73,2.58,-27.3,29.8
2012-09-01 01:45:00,0.0,1.9518,0.0009,387.47,0.27,258.7,33.2,138.06,30.27,24.65,36.52,0.94,-25.86,18.50,-45,41,-935,23.0,23.1,0.8,23.2,2.0,-28.8,5.73,2.56,-27.2,29.8
2012-09-01 01:46:00,0.0,1.9517,0.0011,387.53,0.33,254.5,33.1,138.06,30.27,24.65,36.52,0.93,-25.86,18.51,-45,41,-935,23.0,23.1,0.8,23.2,2.0,-29.0,5.73,2.55,-27.2,29.8
2012-09-01 01:47:00,0.0,1.9517,0.0011,387.45,0.28,252.9,31.4,138.06,30.27,24.65,36.52,0.92,-25.86,18.53,-45,41,-935,23.0,23.4,1.0,23.2,2.0,-28.9,5.73,2.57,-27.2,29.8
2012-09-01 01:48:00,0.0,1.9506,0.0012,387.44,0.27,258.4,33.2,138.06,30.28,24.65,36.52,0.89,-25.86,18.54,-45,40,-935,23.0,22.6,0.5,23.2,2.0,-28.8,5.73,2.58,-27.3,29.8
2012-09-01 01:49:00,0.0,1.9492,0.0010,387.32,0.26,258.0,24.9,138.06,30.28,24.65,36.53,0.90,-25.86,18.55,-45,40,-935,23.0,21.9,0.1,23.3,2.0,-28.9,5.73,2.57,-27.2,29.7
2012-09-01 01:50:00,0.0,1.9494,0.0009,387.41,0.30,254.8,33.4,138.06,30.28,24.65,36.52,0.90,-25.86,18.57,-45,40,-935,23.1,21.8,0.1,23.3,2.0,-28.8,5.73,2.55,-27.2,29.8
2012-09-01 01:51:00,0.0,1.9505,0.0011,387.37,0.30,267.4,33.1,138.06,30.29,24.65,36.52,1.02,-25.86,18.35,-45,40,-935,23.1,22.7,0.6,23.3,2.0,-28.9,5.73,2.56,-27.2,29.8
2012-09-01 01:52:00,0.0,1.9496,0.0009,387.39,0.35,255.5,29.3,138.06,30.29,24.65,36.53,1.02,-25.86,16.68,-45,40,-935,23.1,22.7,0.7,23.3,2.0,-28.8,5.73,2.58,-27.2,29.8
2012-09-01 01:53:00,0.0,1.9501,0.0008,387.24,0.25,260.2,22.6,138.06,30.29,24.65,36.52,1.09,-25.86,14.38,-45,40,-936,23.1,23.1,0.9,23.3,2.0,-28.8,5.73,2.58,-27.2,29.9
2012-09-01 01:54:00,0.0,1.9499,0.0007,387.18,0.27,256.3,29.8,138.06,30.29,24.65,36.53,1.02,-25.87,12.00,-45,40,-935,23.1,23.2,1.0,23.3,2.0,-28.9,5.73,2.56,-27.2,29.8
2012-09-01 01:55:00,0.0,1.9492,0.0008,387.25,0.30,262.2,29.5,138.06,30.30,24.65,36.52,0.94,-25.88,9.66,-45,40,-935,23.2,22.9,0.8,23.3,2.0,-28.9,5.73,2.54,-27.2,29.9
2012-09-01 01:56:00,0.0,1.9488,0.0008,387.34,0.28,261.9,28.1,138.06,30.30,24.65,36.52,1.02,-25.89,7.41,-45,40,-935,23.2,22.4,0.5,23.3,2.0,-28.9,5.73,2.56,-27.2,29.9
2012-09-01 01:57:00,0.0,1.9487,0.0008,387.30,0.32,255.6,30.6,138.06,30.31,24.65,36.52,1.09,-25.90,5.26,-45,40,-935,23.2,22.3,0.5,23.4,2.0,-28.9,5.73,2.58,-27.2,29.8
2012-09-01 01:58:00,0.0,1.9491,0.0009,387.31,0.33,258.3,27.7,138.06,30.31,24.65,36.52,0.97,-25.90,3.22,-45,40,-936,23.2,22.6,0.7,23.4,2.0,-28.9,5.73,2.57,-27.2,29.8
2012-09-01 01:59:00,0.0,1.9487,0.0009,387.40,0.28,256.9,34.9,138.06,30.31,24.65,36.52,0.99,-25.90,1.29,-45,40,-935,23.3,22.5,0.7,23.4,2.0,-28.9,5.73,2.55,-27.2,29.8
2012-09-01 02:00:00,0.0,1.9479,0.0009,387.34,0.27,260.5,31.2,138.06,30.31,24.65,36.53,1.08,-25.91,-0.55,-45,40,-936,23.3,22.1,0.4,23.4,2.0,-28.9,5.73,2.54,-27.2,29.9
2012-09-01 02:01:00,0.0,1.9474,0.0007,387.39,0.29,260.8,29.2,138.06,30.32,24.65,36.53,1.02,-25.91,-2.28,-45,40,-935,23.3,21.9,0.4,23.5,2.0,-28.8,5.73,2.56,-27.2,29.9
2012-09-01 02:02:00,0.0,1.9473,0.0010,387.46,0.31,257.8,31.0,138.06,30.32,24.65,36.52,0.95,-25.91,-3.73,-45,40,-936,23.3,21.9,0.4,23.5,2.0,-28.8,5.73,2.58,-27.2,29.9
2012-09-01 02:03:00,0.0,1.9475,0.0008,387.36,0.29,259.0,30.8,138.06,30.33,24.65,36.52,1.04,-25.92,-4.85,-45,40,-935,23.3,22.3,0.6,23.5,2.0,-28.8,5.73,2.56,-27.2,29.9
2012-09-01 02:04:00,0.0,1.9477,0.0011,387.29,0.34,259.8,27.3,138.06,30.33,24.65,36.52,1.06,-25.92,-6.16,-45,40,-936,23.4,22.5,0.8,23.5,1.9,-28.9,5.73,2.54,-27.2,30.0
2012-09-01 02:05:00,0.0,1.9472,0.0009,387.28,0.30,256.2,34.4,138.06,30.34,24.65,36.52,0.96,-25.93,-7.40,-45,40,-935,23.4,22.6,0.9,23.5,1.9,-28.8,5.73,2.55,-27.2,29.9
2012-09-01 02:06:00,0.0,1.9469,0.0008,387.24,0.29,267.7,23.3,138.06,30.34,24.65,36.53,0.99,-25.94,-8.67,-45,40,-936,23.4,22.4,0.7,23.5,1.9,-29.0,5.73,2.56,-27.2,29.9
2012-09-01 02:07:00,0.0,1.9470,0.0013,387.22,0.26,252.3,31.7,138.06,30.35,24.65,36.52,1.06,-25.95,-9.91,-45,40,-936,23.4,21.8,0.4,23.6,1.9,-29.0,5.73,2.57,-27.2,30.0
2012-09-01 02:08:00,0.0,1.9469,0.0009,387.33,0.27,257.1,26.9,138.06,30.35,24.65,36.52,1.02,-25.96,-11.03,-45,40,-935,23.5,21.2,0.0,23.6,1.9,-28.9,5.73,2.55,-27.3,30.0
2012-09-01 02:09:00,0.0,1.9470,0.0008,387.23,0.27,264.8,29.2,138.06,30.36,24.65,36.52,0.95,-25.97,-12.10,-45,40,-936,23.5,21.4,0.2,23.6,1.9,-28.9,5.73,2.54,-27.3,30.0
2012-09-01 02:10:00,0.0,1.9466,0.0010,387.35,0.34,259.5,29.9,138.06,30.37,24.65,36.52,1.01,-25.98,-13.12,-45,40,-936,23.6,21.6,0.3,23.6,1.9,-28.9,5.73,2.54,-27.3,30.1
2012-09-01 02:11:00,0.0,1.9463,0.0008,387.20,0.28,265.3,28.1,138.06,30.37,24.65,36.52,1.06,-26.00,-14.05,-45,40,-936,23.6,22.0,0.6,23.7,1.9,-28.9,5.73,2.56,-27.3,30.1
2012-09-01 02:12:00,0.0,1.9463,0.0010,387.13,0.30,255.0,27.9,138.05,30.38,24.65,36.52,0.99,-26.01,-14.96,-46,40,-936,23.6,22.2,0.8,23.7,1.9,-29.0,5.73,2.57,-27.3,30.1
2012-09-01 02:13:00,0.0,1.9462,0.0007,387.36,0.31,258.7,29.0,138.06,30.39,24.65,36.52,0.95,-26.02,-15.85,-46,40,-936,23.7,21.7,0.5,23.8,1.9,-29.0,5.73,2.55,-27.3,30.1
2012-09-01 02:14:00,0.0,1.9463,0.0009,387.30,0.25,254.0,25.7,138.05,30.39,24.65,36.53,1.01,-26.03,-16.66,-46,40,-936,23.7,21.9,0.7,23.8,1.9,-29.0,5.73,2.53,-27.3,30.1
2012-09-01 02:15:00,0.0,1.9460,0.0010,387.26,0.28,252.3,31.8,138.05,30.40,24.65,36.52,1.06,-26.03,-17.39,-46,40,-936,23.7,22.0,0.7,23.8,1.9,-29.0,5.73,2.53,-27.3,30.1
2012-09-01 02:16:00,0.0,1.9471,0.0013,387.29,0.31,259.3,28.4,138.05,30.41,24.65,36.52,0.99,-26.04,-18.07,-46,40,-936,23.8,22.2,0.9,23.8,1.9,-28.9,5.73,2.56,-27.3,30.2
2012-09-01 02:17:00,0.0,1.9467,0.0015,387.13,0.27,256.7,31.9,138.05,30.41,24.65,36.52,0.94,-26.06,-18.76,-46,40,-936,23.8,22.8,1.3,23.9,1.9,-29.0,5.73,2.56,-27.3,30.2
2012-09-01 02:18:00,0.0,1.9447,0.0009,387.39,0.29,254.6,27.2,138.05,30.42,24.65,36.51,1.00,-26.07,-19.42,-46,40,-936,23.8,22.8,1.3,23.9,1.9,-28.9,5.73,2.56,-27.3,30.2
2012-09-01 02:19:00,0.0,1.9436,0.0011,387.37,0.26,250.6,29.5,138.05,30.43,24.65,36.52,1.05,-26.08,-20.04,-46,40,-936,23.9,22.6,1.2,23.9,1.9,-29.0,5.73,2.53,-27.3,30.3
2012-09-01 02:20:00,0.0,1.9428,0.0007,387.21,0.35,242.1,34.7,138.05,30.44,24.65,36.53,1.02,-26.09,-20.63,-46,40,-936,23.9,22.5,1.2,23.9,1.9,-29.0,5.73,2.53,-27.3,30.3
2012-09-01 02:21:00,0.0,1.9406,0.0009,387.20,0.33,259.3,30.7,138.05,30.44,24.65,36.53,0.94,-26.10,-21.18,-46,40,-936,23.9,22.7,1.3,23.9,1.9,-29.0,5.73,2.55,-27.4,30.3